ECMWFFLT1_700_spd_051.txt.gz
Wind_Speed
26 27 28 29 29 28 28 27 26 23 21 17 15 14 15 17 19 22 23 24 26 29 32 34 36 39 41 43 44 45 45 45 45 47 50 55 59 60 60 60 61 64 68 66 62 61 62 60 59 59 60 61 63 64 65 66 66 66 67 66 66 67 67
25 27 28 29 30 28 27 27 26 24 22 19 16 13 13 13 15 16 17 19 20 22 26 29 32 35 38 41 44 44 44 45 46 46 46 48 53 59 60 61 62 62 65 66 63 60 60 58 55 56 58 58 60 62 63 64 66 67 68 68 68 68 69
25 27 28 29 30 29 27 25 24 23 22 20 17 13 11 11 11 12 13 14 16 18 20 24 27 29 33 36 40 43 43 44 45 46 45 43 46 53 57 58 61 62 63 64 62 60 59 58 55 54 55 55 55 57 58 61 64 65 66 68 69 69 69
26 27 28 28 29 29 28 25 23 23 21 19 17 14 12 10 10 11 12 13 15 16 18 20 22 24 26 29 33 37 40 42 43 44 43 41 41 46 51 52 55 57 58 58 57 55 54 54 52 50 51 51 51 52 54 56 59 62 63 66 68 69 70
26 27 28 28 28 28 28 26 23 21 21 20 18 15 13 10 10 11 12 14 15 17 18 19 20 20 21 22 24 27 31 35 38 39 39 38 38 41 45 46 47 48 50 52 51 48 47 47 47 46 47 47 47 48 49 51 54 57 60 63 65 67 68
26 27 28 28 27 26 27 27 24 21 20 19 18 17 15 12 11 11 12 14 16 17 19 20 20 19 19 20 19 20 22 26 29 30 31 32 33 35 37 39 41 42 44 46 46 44 42 42 43 43 44 44 44 45 46 48 50 52 55 59 62 64 65
25 26 27 27 27 26 26 26 25 23 20 19 18 17 16 15 12 11 11 12 14 16 17 19 20 20 20 20 20 19 19 20 22 24 26 27 29 31 33 35 38 39 40 42 42 41 40 40 40 40 41 41 41 42 44 45 46 49 52 54 58 60 60
24 26 27 27 26 26 26 27 26 25 21 18 17 16 16 15 13 12 11 11 12 13 14 16 17 19 20 21 22 22 21 21 22 23 25 26 28 30 33 35 37 37 38 39 39 39 39 39 39 39 39 39 40 41 42 42 44 47 48 49 50 52 53
26 26 26 26 26 26 26 27 27 26 23 18 16 15 14 15 14 12 10 9 9 10 11 12 14 15 17 18 20 22 24 24 25 26 27 27 29 31 33 35 36 36 36 36 36 37 37 37 38 38 38 38 39 39 38 38 40 43 43 42 42 43 45
25 26 26 26 25 25 26 27 26 25 22 18 16 14 13 13 13 13 11 10 9 9 9 10 11 12 13 15 17 19 23 25 27 29 29 29 30 31 32 34 34 35 36 34 34 35 33 32 35 36 35 35 35 34 33 35 37 38 38 37 38 38 38
24 25 25 25 25 25 26 26 25 23 20 18 16 15 13 11 11 12 12 11 9 9 9 10 10 11 11 12 13 15 18 22 25 28 29 30 31 31 31 32 33 35 36 35 34 34 32 31 32 32 30 29 29 29 30 32 33 35 35 35 35 34 33
24 24 25 25 25 25 25 24 22 21 19 18 17 16 15 13 12 12 13 12 10 9 10 10 10 9 9 9 10 12 14 16 20 23 26 28 29 30 32 33 34 34 35 34 34 33 32 30 30 28 27 26 26 26 27 29 30 32 33 32 31 31 30
23 23 24 24 24 24 23 21 20 19 18 18 17 17 17 15 14 13 13 13 12 10 11 11 11 10 9 8 8 9 11 13 15 19 22 25 27 29 32 34 34 34 34 34 33 32 31 30 29 29 27 24 24 24 25 26 27 28 28 28 28 28 28
22 22 23 23 22 21 20 18 18 17 16 17 17 18 18 18 17 14 13 14 14 13 13 13 14 14 11 9 8 7 9 11 13 15 19 22 25 27 30 32 33 33 34 35 35 34 31 29 29 29 26 23 23 23 23 23 24 25 25 26 26 26 27
20 20 22 22 21 19 17 16 16 15 14 14 14 15 17 18 18 16 14 14 15 16 16 16 16 17 15 13 11 8 9 11 12 14 17 19 22 24 27 30 31 32 33 35 35 34 31 29 28 27 24 24 24 22 21 22 24 25 26 26 27 28 30
20 19 20 21 21 18 15 15 14 13 13 12 12 13 16 17 18 17 16 16 15 16 18 18 18 18 17 16 13 9 9 11 13 15 16 17 20 22 24 27 29 29 32 33 34 33 31 28 28 27 25 26 25 24 23 22 24 26 27 28 30 31 31
19 19 19 19 20 18 15 13 12 12 12 9 11 15 18 18 19 19 18 17 16 16 17 18 18 18 16 14 13 11 10 11 15 17 16 16 18 21 24 25 27 28 30 31 31 31 29 28 28 28 28 28 27 27 28 27 28 28 27 28 30 32 31
17 18 18 18 18 18 16 12 10 11 11 6 7 13 16 15 16 18 18 17 16 15 16 17 17 18 16 14 13 12 11 12 15 18 17 16 18 21 24 24 25 28 30 30 31 31 31 30 29 29 31 32 30 30 30 31 31 30 30 31 33 33 32
16 16 17 17 17 17 15 12 10 12 13 7 5 11 14 12 13 15 16 16 16 14 14 16 17 18 18 16 14 14 14 14 17 18 18 18 18 21 23 22 23 26 28 30 31 31 32 32 31 31 33 34 33 31 31 32 33 32 33 34 35 34 34
15 14 16 16 15 15 15 13 12 14 15 12 9 12 14 14 15 16 17 17 16 15 14 15 16 17 17 17 16 15 15 17 19 19 18 17 17 18 19 21 23 25 26 27 28 29 30 32 33 33 34 35 34 32 32 33 33 34 34 35 36 36 36
15 14 14 14 14 14 14 14 14 15 16 15 13 13 15 16 17 18 19 19 17 16 15 14 15 16 16 17 18 17 16 16 19 20 17 13 13 15 16 19 23 25 24 25 25 25 27 30 32 33 36 37 35 31 30 31 32 32 33 33 34 35 36
16 14 14 14 13 13 13 14 14 15 16 15 15 15 15 16 16 17 18 18 16 16 15 13 13 15 16 17 17 15 14 14 17 19 16 12 11 12 14 17 21 24 25 26 25 25 26 28 29 31 35 37 34 29 28 28 29 29 29 30 31 32 35
16 15 14 14 14 14 13 14 14 16 16 17 17 17 16 16 16 15 16 16 16 16 15 13 13 14 15 14 14 13 13 14 16 17 15 12 12 11 11 15 19 23 26 27 27 26 27 28 28 30 33 34 30 27 26 27 27 27 27 28 29 30 33
17 16 16 15 15 15 15 14 15 15 17 18 19 20 19 19 17 15 15 16 16 16 15 12 12 14 15 15 15 15 15 16 16 15 14 11 10 10 10 12 16 21 25 28 28 27 27 28 29 29 29 28 25 25 26 27 27 27 27 28 29 30 32
17 16 16 15 15 15 16 16 16 16 16 18 19 20 21 21 19 18 16 16 16 16 16 14 13 14 16 17 17 16 16 16 15 14 12 11 9 9 9 10 13 17 23 28 29 28 27 27 26 26 25 24 24 25 27 27 28 27 28 28 27 27 28
17 17 17 15 15 16 16 17 17 17 17 18 18 19 21 21 21 20 19 18 17 16 16 15 14 14 15 16 17 17 17 16 16 15 13 12 11 11 10 11 13 16 20 24 26 27 26 25 24 24 25 25 26 26 26 26 27 26 26 25 24 24 25
18 18 18 16 15 16 17 17 18 19 20 20 19 18 19 20 21 21 21 20 18 17 16 16 15 14 14 14 15 17 18 18 17 16 16 15 14 14 14 13 15 17 19 22 24 26 27 26 26 27 27 27 27 27 26 26 26 24 24 24 24 24 24
20 20 19 18 17 18 17 17 18 20 21 21 20 19 19 19 21 22 23 22 21 18 17 16 15 15 14 13 14 15 16 17 18 18 18 18 18 18 18 17 18 19 20 22 24 26 27 27 27 27 27 26 27 27 26 25 24 23 23 24 24 25 25
21 20 19 19 19 19 19 19 19 20 21 21 21 21 20 19 20 21 21 21 20 18 16 15 15 14 14 14 14 15 15 16 17 18 19 20 21 21 22 22 22 22 22 23 24 26 27 28 28 27 27 26 25 26 25 25 24 23 23 23 24 24 24
21 20 19 19 19 20 20 21 21 21 21 21 22 22 21 20 20 19 17 17 17 16 14 14 14 14 14 14 14 15 15 16 16 17 18 20 21 23 24 25 26 26 26 26 26 26 27 27 27 28 28 27 26 25 26 26 25 23 22 22 23 23 22
20 20 20 19 19 19 20 22 22 22 22 22 22 22 21 20 20 18 16 16 16 15 14 13 13 14 14 13 14 14 14 15 16 17 18 19 21 22 24 25 27 28 30 30 31 30 29 28 27 27 28 29 29 28 26 25 25 24 23 22 22 22 21
20 20 20 20 20 19 20 21 22 23 23 23 22 21 20 19 18 16 16 16 15 14 14 13 13 13 14 13 13 13 13 14 15 16 17 18 19 21 22 23 25 27 28 30 32 33 33 32 31 29 29 30 32 31 29 26 26 25 24 23 23 22 21
22 21 20 20 21 21 21 21 22 23 22 21 20 19 18 18 17 15 15 15 14 14 14 13 12 13 13 13 14 13 13 14 15 15 16 17 18 20 21 22 23 24 25 27 28 30 31 33 34 33 32 32 33 33 31 30 28 27 26 25 24 22 21
23 23 22 22 22 21 21 21 21 21 20 18 18 18 17 16 15 14 13 13 13 14 14 13 13 13 13 13 14 13 14 14 15 14 15 16 16 18 19 19 20 22 23 24 25 26 27 29 31 33 34 35 35 35 34 31 30 29 28 27 24 22 21
20 22 22 22 21 20 19 19 18 18 16 16 16 16 15 14 14 13 13 13 14 14 13 13 13 13 13 13 13 13 13 13 13 13 14 14 15 16 16 17 18 18 19 20 22 23 25 26 26 28 30 33 35 37 36 35 33 31 30 28 25 23 21
16 17 18 19 18 18 17 17 16 16 15 14 14 14 14 13 13 13 13 14 15 14 14 14 13 13 13 13 13 12 12 12 12 13 13 13 14 14 15 15 16 17 18 18 18 20 21 23 24 25 26 28 31 34 36 37 36 34 31 29 26 24 22

ECMWFFLT1_700_spd_054.txt.gz
Wind_Speed
20 20 21 21 23 24 25 26 27 28 28 27 26 25 24 21 17 14 15 18 22 25 27 29 31 34 37 39 41 42 43 44 44 44 44 43 44 45 48 51 55 60 64 66 67 69 69 66 64 64 63 64 67 68 69 70 70 70 70 68 67 66 65
21 21 22 23 24 25 25 26 27 27 27 27 25 24 24 22 17 13 11 12 15 19 22 24 26 29 31 33 35 36 37 38 39 41 42 43 44 45 46 48 52 55 59 62 63 66 70 70 69 67 65 63 64 65 67 69 71 71 71 70 69 68 67
22 22 23 24 25 25 25 26 26 26 27 26 25 23 23 23 20 15 11 9 9 12 15 17 19 21 23 25 27 28 30 32 34 36 39 41 43 45 45 46 50 52 55 59 61 62 65 69 71 72 70 67 65 64 64 66 69 70 71 72 71 70 70
24 23 24 24 25 25 25 25 25 25 26 26 25 23 21 21 20 17 13 10 9 9 11 13 14 16 17 19 21 22 24 26 29 32 35 38 41 43 45 46 48 50 52 56 59 61 62 64 67 71 72 70 68 66 65 65 67 68 70 71 72 72 72
25 24 24 24 25 25 25 24 23 24 25 26 24 22 20 20 18 16 14 12 11 10 11 12 13 15 17 18 18 19 20 22 24 28 31 35 38 40 43 45 46 48 50 53 56 58 60 62 64 66 69 70 68 67 66 65 66 67 68 70 72 73 73
26 26 25 24 25 25 25 23 22 23 24 25 23 20 19 19 17 15 13 12 11 11 12 13 15 16 18 18 18 18 19 20 22 24 27 30 33 36 39 42 43 45 47 50 53 55 56 59 61 62 64 66 65 66 66 65 64 65 66 68 70 72 73
28 27 26 25 24 24 24 22 21 23 24 24 22 19 17 17 17 15 13 11 10 11 12 13 15 17 19 20 20 21 21 22 22 22 23 25 28 31 35 38 40 41 43 45 48 52 54 56 57 59 61 61 61 62 64 64 64 64 65 65 67 69 70
28 27 27 26 24 23 23 21 21 23 24 23 20 17 15 16 16 15 13 12 10 10 11 12 13 16 18 19 21 22 23 24 24 23 22 22 23 26 30 34 36 38 40 43 46 50 54 56 57 58 57 57 57 58 60 61 62 63 64 64 65 67 68
28 27 27 25 24 22 21 21 21 23 23 21 19 16 15 15 16 16 14 13 11 10 9 10 11 13 15 17 19 21 23 25 25 25 24 23 23 24 26 29 32 35 38 41 44 47 50 54 56 55 52 50 50 50 51 52 54 58 61 62 63 65 65
28 28 26 24 22 21 20 20 21 22 22 20 18 16 16 15 16 17 16 14 13 11 10 10 10 11 12 14 15 17 19 22 24 25 25 25 26 25 25 26 28 30 33 36 39 41 43 46 48 47 45 44 42 42 43 45 47 51 54 55 57 59 60
28 28 27 24 22 20 20 20 21 21 21 20 19 18 17 15 15 16 18 17 15 13 12 12 11 10 11 12 13 14 16 18 20 22 24 26 27 28 28 28 27 27 29 31 33 35 36 38 39 39 40 39 35 33 37 40 42 44 46 48 50 52 53
28 28 28 25 22 20 19 20 20 21 20 20 19 19 18 16 14 14 16 18 18 16 14 14 13 11 11 11 12 13 14 15 16 18 20 23 25 27 29 30 30 30 30 31 32 33 33 34 34 36 39 37 30 26 28 32 35 38 40 43 44 47 48
28 27 27 26 22 19 19 19 20 20 19 18 18 18 18 16 14 12 12 14 17 18 17 16 16 14 13 12 13 13 13 14 15 16 18 19 22 24 26 28 30 31 32 34 35 36 35 34 34 35 37 34 28 23 23 25 27 30 34 38 40 42 42
27 27 26 26 22 19 18 20 20 19 18 17 15 14 14 14 13 12 11 11 13 15 17 18 19 19 16 15 15 14 14 15 15 16 17 18 19 20 22 25 28 30 32 35 37 37 36 34 35 35 35 31 27 23 23 23 23 24 28 31 33 34 35
26 26 26 25 22 18 18 19 20 18 16 15 14 12 11 13 15 13 12 12 12 13 15 18 20 22 20 19 18 17 16 16 16 17 18 18 18 18 20 22 25 27 30 33 36 36 35 34 34 35 34 30 27 24 24 24 23 22 22 24 26 29 31
25 25 25 24 22 18 17 19 20 18 16 15 14 11 10 14 18 17 14 13 14 14 15 16 19 22 22 22 21 19 18 17 17 18 18 17 16 17 19 21 22 25 28 31 33 34 34 32 32 32 32 31 28 26 25 24 23 22 21 23 25 28 30
24 24 23 23 21 17 16 18 19 18 17 16 14 12 13 16 19 19 17 15 15 16 17 17 18 20 22 23 22 20 18 17 18 17 15 14 14 16 18 19 20 24 27 28 30 32 32 31 30 31 33 32 30 28 25 24 23 22 22 24 25 28 29
23 23 22 22 21 18 16 17 18 18 17 16 15 16 18 18 19 19 18 17 17 18 18 18 18 19 21 22 21 20 19 19 19 17 14 12 13 15 16 17 19 24 26 27 29 30 31 31 30 32 33 31 30 29 26 25 25 23 22 25 27 28 28
22 22 22 21 20 18 16 16 17 18 17 16 17 18 19 20 21 20 18 18 19 19 19 19 19 20 22 21 20 20 20 20 21 19 15 13 12 13 14 15 19 24 26 27 28 28 29 30 31 33 33 31 31 31 30 28 28 25 24 26 28 29 29
21 21 21 21 20 19 17 16 16 17 17 16 16 18 20 22 22 20 18 18 19 19 19 19 18 19 21 21 21 21 21 22 22 20 19 17 13 11 13 14 18 22 25 27 27 27 27 29 30 32 33 32 31 33 34 32 29 27 26 27 28 30 31
21 20 21 21 20 19 17 16 16 16 15 15 16 17 20 21 21 21 20 19 18 18 18 18 17 17 19 21 21 21 21 22 20 19 21 20 15 12 12 12 14 18 22 26 28 28 28 29 30 32 34 34 34 35 36 36 32 29 28 29 29 30 31
20 19 20 21 21 19 18 18 17 16 15 14 15 17 20 21 21 21 21 20 19 19 19 18 16 15 17 20 20 20 20 20 18 17 19 21 18 15 12 11 12 15 18 23 26 28 29 30 32 33 34 34 34 35 37 39 37 33 31 29 29 29 30
20 19 20 21 21 20 20 20 19 17 16 15 15 17 19 21 22 22 23 22 22 21 20 19 17 15 16 19 20 20 18 17 17 17 18 18 18 17 14 12 12 13 15 19 24 27 28 30 31 33 33 33 33 33 34 36 37 37 34 31 29 28 30
19 19 20 21 21 21 21 21 21 19 17 16 15 16 18 20 22 23 23 24 24 23 22 21 19 16 16 17 20 21 21 20 20 20 19 18 19 19 18 15 13 13 14 17 21 24 26 27 29 30 30 29 28 29 30 32 34 36 35 33 30 29 29
19 19 20 21 21 22 22 22 22 21 19 17 16 16 17 18 20 22 23 24 24 24 23 23 22 20 18 17 19 22 23 24 23 21 20 19 19 19 19 16 13 13 15 15 17 20 23 24 26 26 25 23 23 25 28 31 32 34 35 33 30 29 29
18 19 19 20 21 22 22 23 22 21 20 19 18 17 18 18 19 21 22 23 23 23 24 24 24 23 21 19 19 21 23 24 24 22 20 19 18 19 19 16 14 14 14 14 14 16 20 22 23 22 22 21 22 24 26 28 30 32 33 32 30 28 28
18 18 19 19 20 20 21 22 23 23 22 22 21 20 19 19 20 21 22 22 22 22 23 24 25 24 23 22 20 20 22 23 24 24 22 20 20 20 19 17 15 15 14 14 14 15 19 22 23 23 23 24 26 27 28 28 29 31 30 29 28 28 28
18 18 18 18 18 19 21 22 24 24 24 24 23 22 21 21 21 21 21 21 21 22 23 24 24 25 25 24 22 20 21 22 24 24 24 23 22 22 21 19 17 16 16 16 16 16 20 24 26 27 26 27 28 29 29 29 29 29 28 27 28 29 29
18 18 18 17 18 20 22 23 24 24 25 24 24 23 22 22 22 21 21 21 21 22 23 24 24 25 26 26 24 21 20 20 21 22 24 25 25 25 23 22 21 19 18 17 18 18 20 24 28 29 29 29 29 28 28 28 29 29 28 28 29 29 29
17 18 18 18 19 21 22 23 23 23 24 24 23 23 23 23 22 20 20 20 21 22 22 22 23 25 25 25 23 22 20 19 19 20 22 23 24 24 24 24 23 23 22 21 20 20 21 23 27 30 31 31 30 29 27 27 28 29 29 29 29 28 28
15 17 18 20 20 20 21 22 22 22 23 23 22 22 23 23 22 20 19 19 20 21 21 21 22 23 23 23 22 21 20 19 18 19 20 21 21 22 23 24 25 25 25 24 24 23 23 24 25 28 30 31 32 31 29 28 28 29 29 29 29 28 28
15 15 17 18 19 19 20 20 21 22 22 22 22 22 23 23 21 19 18 19 19 19 19 19 20 21 21 20 20 20 19 19 18 18 19 20 21 21 22 23 25 26 27 28 27 27 26 26 26 27 28 29 31 32 32 32 31 29 28 29 29 29 29
14 15 15 16 16 16 16 17 18 19 20 20 21 21 22 21 19 18 17 18 18 18 18 18 19 19 19 19 19 19 19 19 18 18 18 18 19 20 21 22 23 25 27 28 29 30 30 30 30 29 29 29 29 30 32 34 34 32 31 30 30 29 29
13 13 15 16 15 14 14 14 15 16 16 17 17 18 18 18 18 16 16 17 17 18 18 17 17 17 18 18 18 18 18 19 18 18 18 18 18 19 20 20 21 22 23 25 27 29 31 32 33 33 33 32 31 31 32 34 34 35 36 34 31 30 29
12 12 13 15 16 15 14 14 14 14 14 14 14 15 16 16 16 15 15 16 17 17 17 16 16 16 16 16 17 17 17 18 19 19 19 19 19 19 19 20 20 20 21 22 23 25 27 29 31 32 33 33 34 34 34 35 35 36 38 37 34 32 30
13 12 12 13 15 15 14 14 13 13 12 12 12 13 14 14 14 14 15 15 16 17 16 16 15 15 16 16 16 16 16 17 17 18 19 19 19 19 19 19 19 20 20 21 21 22 23 24 26 27 29 30 32 33 34 35 37 37 38 37 36 35 33

ECMWFFLT1_700_spd_060.txt.gz
Wind_Speed
34 33 32 31 30 29 29 29 29 29 30 29 28 27 27 28 28 28 28 28 30 30 30 29 28 28 28 28 27 27 29 32 37 42 47 52 56 59 61 62 63 64 64 64 64 64 64 63 63 64 64 65 65 65 65 64 63 62 61 61 61 61 62
37 36 34 33 32 32 31 31 30 30 31 30 29 29 28 28 29 29 27 27 29 31 31 29 26 26 27 28 26 24 25 27 31 36 41 47 51 56 59 61 62 62 63 63 61 61 63 63 62 62 63 64 65 65 65 66 65 65 64 64 63 63 62
39 38 37 35 34 34 33 32 32 32 32 31 31 30 30 29 29 29 28 27 28 31 31 29 26 25 26 27 25 22 22 23 25 29 35 40 45 50 55 58 60 61 62 61 59 58 59 60 60 60 60 62 64 65 66 67 67 67 67 66 66 65 65
40 40 39 38 36 35 34 34 33 33 33 33 32 31 31 31 30 29 28 27 28 30 31 29 26 25 25 25 23 21 20 20 21 24 28 33 38 43 48 52 55 58 59 60 59 55 54 55 57 57 56 57 60 64 66 67 68 69 69 68 68 68 68
41 41 41 39 38 37 36 35 34 34 34 33 33 32 32 32 30 29 28 27 28 30 30 28 26 25 24 23 22 21 19 18 18 20 23 27 31 36 41 45 48 52 54 56 57 54 51 50 51 52 52 52 53 58 62 65 67 69 70 70 70 70 70
40 41 41 40 39 38 37 35 35 34 34 34 33 33 33 33 31 29 28 27 28 29 29 27 26 25 24 22 21 20 19 18 17 17 18 21 24 29 33 37 41 44 47 50 52 52 49 47 47 48 49 49 49 52 56 60 63 66 69 71 72 72 72
39 40 41 40 40 38 37 36 35 35 35 34 33 33 34 33 31 29 28 27 27 28 27 26 25 25 24 22 20 20 19 18 16 16 16 17 19 23 27 30 33 36 40 43 46 47 47 45 45 46 47 48 49 50 52 54 58 62 66 69 72 74 74
38 39 40 40 39 39 37 36 35 34 34 34 33 34 34 33 30 28 28 28 27 26 26 25 24 24 24 22 20 19 19 18 17 16 15 16 17 18 21 24 26 30 33 36 39 41 43 43 43 44 46 48 49 51 51 51 54 56 59 64 69 73 75
37 38 39 38 38 38 37 36 35 34 34 34 34 34 34 33 30 28 27 27 27 26 25 25 24 23 23 23 21 19 19 19 18 17 16 16 17 17 18 20 21 24 27 30 33 35 37 39 40 41 43 45 46 47 49 50 52 54 54 56 62 68 72
35 37 37 37 37 37 37 35 34 34 34 34 34 34 34 32 29 28 28 27 26 25 25 25 24 23 23 22 21 19 18 18 18 18 17 17 18 18 19 19 20 21 23 25 27 29 30 32 33 33 35 37 39 41 44 46 49 51 53 54 56 59 63
34 34 35 36 36 36 36 34 33 33 34 34 34 34 33 31 29 28 28 27 26 25 25 25 25 24 23 23 21 19 19 18 18 17 17 18 20 20 21 22 22 22 22 23 24 24 25 25 25 26 26 27 28 30 34 37 41 45 50 53 55 56 57
32 33 33 35 35 35 34 33 32 33 33 34 34 35 33 30 28 28 28 27 26 25 24 25 24 24 24 24 22 21 19 18 18 18 17 18 20 21 22 23 23 24 24 25 25 25 25 25 24 23 22 22 22 22 24 27 31 37 42 47 51 55 57
31 31 32 33 33 33 33 32 32 32 32 33 33 34 34 31 28 28 28 28 26 24 23 23 23 23 24 24 24 23 21 19 18 18 18 18 19 20 20 21 22 23 25 26 28 28 28 28 28 27 25 23 23 22 21 21 23 28 33 39 43 48 53
30 30 31 31 31 32 31 31 31 31 31 32 32 33 33 31 29 28 29 27 25 23 22 21 22 23 23 23 23 23 22 20 20 20 19 19 18 17 17 18 19 19 21 24 27 29 29 30 31 30 29 28 26 25 23 21 21 23 27 31 35 40 45
30 29 29 30 30 30 30 30 31 31 31 31 31 32 32 31 29 29 30 27 23 22 21 20 22 23 22 22 22 21 21 21 21 22 22 20 18 16 16 16 15 15 18 22 25 26 27 28 31 32 32 31 30 28 27 24 23 24 25 26 28 32 37
29 29 28 29 29 28 28 29 30 31 30 30 30 31 32 31 29 30 30 26 22 21 19 17 19 21 21 20 19 18 19 20 22 23 23 21 19 17 17 15 13 14 17 20 22 25 25 25 27 29 31 32 32 32 30 28 27 28 27 26 25 25 29
28 28 27 27 28 27 27 28 30 30 30 29 30 31 31 30 30 31 30 25 21 20 17 14 15 17 18 17 17 17 18 20 22 23 23 21 20 20 18 14 12 14 17 18 22 24 24 23 24 25 28 29 31 33 33 31 31 31 30 28 25 24 25
28 27 27 26 26 26 26 26 29 29 28 28 29 30 30 30 30 31 30 23 19 18 16 15 15 16 16 15 15 17 18 19 21 23 23 22 21 22 19 13 11 15 17 19 22 23 22 22 22 23 25 26 28 31 33 34 34 33 31 31 29 26 25
27 26 26 25 25 25 25 25 27 28 28 27 28 29 30 30 31 31 28 22 18 17 18 17 16 17 17 16 15 16 17 18 20 22 23 22 22 23 18 12 13 17 17 20 22 21 21 22 22 23 24 25 26 28 31 34 35 34 34 34 32 29 27
26 25 25 25 24 24 23 24 25 27 27 26 28 29 30 31 32 31 26 20 17 18 19 18 18 18 19 18 16 15 15 16 17 19 21 22 24 23 18 15 18 20 19 21 22 21 22 23 22 23 24 24 25 26 29 32 33 34 35 36 35 32 30
26 25 24 25 24 23 23 23 24 26 26 26 27 29 31 32 32 28 24 20 18 19 20 19 18 18 19 19 18 16 15 15 15 17 20 21 23 23 19 18 21 21 21 23 23 22 23 23 22 23 24 24 25 26 27 29 31 33 35 37 37 34 32
25 24 24 24 23 22 22 23 23 24 24 25 27 29 31 33 30 26 23 21 19 19 20 18 17 18 20 22 22 19 17 16 15 16 20 22 22 21 19 19 21 22 24 25 24 24 24 24 23 24 23 23 24 25 26 28 30 31 33 36 37 34 32
25 23 23 23 23 22 22 22 22 22 23 24 27 29 32 32 28 24 23 22 20 19 19 17 16 17 20 23 24 22 20 19 18 18 19 21 22 22 20 19 21 23 25 25 26 26 26 25 24 22 21 22 23 24 26 27 29 30 31 34 35 33 31
24 23 22 22 22 22 22 21 20 21 22 24 26 29 31 30 27 25 24 22 20 19 18 17 16 18 21 23 25 25 23 21 21 20 19 19 20 22 23 22 22 23 25 26 27 27 26 24 23 20 20 22 23 24 26 28 29 30 30 32 33 32 31
24 22 21 21 22 22 21 20 20 20 21 23 24 27 28 29 28 26 25 23 21 20 19 18 18 19 21 23 24 25 24 23 22 22 22 20 19 20 22 24 25 26 26 27 27 25 23 21 19 19 21 23 23 25 27 28 29 29 28 30 31 32 34
23 21 20 20 21 21 20 19 19 20 21 22 24 26 27 28 28 26 25 24 23 21 21 21 20 20 20 22 23 23 23 24 24 24 24 23 21 20 20 23 26 29 30 30 28 25 23 20 18 19 21 23 23 24 25 26 27 27 26 28 31 34 37
22 20 19 19 20 20 19 18 19 20 21 23 24 26 27 27 27 27 26 25 24 24 24 24 23 22 21 22 23 23 23 24 25 25 25 24 24 23 21 21 24 28 31 32 29 26 23 21 20 21 21 21 21 21 22 24 25 25 25 27 31 35 38
21 20 18 18 19 19 18 17 18 20 22 24 25 26 26 27 27 28 27 26 26 26 26 26 25 24 24 23 24 25 25 25 25 25 25 25 25 24 23 22 23 25 29 31 30 27 25 23 22 22 21 21 19 18 18 21 23 24 24 26 30 34 37
20 19 18 17 17 17 16 16 18 20 22 25 26 26 26 26 28 28 27 27 28 28 27 27 26 26 26 25 25 25 26 26 26 25 25 25 25 25 24 24 24 24 26 28 29 29 27 24 22 21 21 21 19 16 16 19 22 23 23 26 30 34 36
20 19 18 15 15 15 15 17 19 21 23 25 25 25 25 26 27 28 28 29 30 28 27 27 27 27 27 27 26 26 26 27 27 26 26 25 25 25 25 25 24 24 24 26 28 29 28 25 23 21 20 20 19 16 15 17 19 21 23 25 28 31 33
19 19 16 13 13 15 17 20 21 22 23 24 25 26 26 27 28 29 30 29 29 28 27 28 28 28 28 27 27 27 27 27 28 27 26 25 24 24 25 24 23 23 23 24 26 28 28 27 25 23 21 20 19 17 17 18 19 20 22 24 25 27 29
18 17 15 13 14 17 18 20 20 21 23 24 25 26 27 28 30 30 29 28 28 29 28 28 28 28 28 28 28 28 27 28 28 27 26 25 23 23 23 22 22 22 23 24 25 26 27 27 26 25 23 22 20 19 19 21 22 23 24 25 25 25 26
16 16 15 14 14 16 17 17 18 20 22 23 25 26 28 30 31 30 28 28 29 28 27 27 27 28 28 28 28 28 28 28 27 26 25 24 22 21 21 21 21 21 22 23 24 25 25 26 26 25 24 23 23 21 21 23 25 26 27 28 29 28 26
15 16 15 14 14 15 15 15 16 17 19 21 23 24 26 29 30 29 28 27 27 27 26 26 26 26 26 26 26 26 26 25 25 24 23 23 22 22 21 21 21 21 22 23 24 24 25 25 25 25 24 24 24 24 24 25 26 28 30 31 31 31 30
15 15 14 14 14 15 15 14 14 15 16 17 19 21 23 24 25 24 23 23 23 23 22 22 22 22 22 22 22 22 23 23 23 22 22 23 22 22 22 22 22 22 22 23 23 24 25 25 25 26 25 25 25 25 25 26 27 29 31 33 33 33 33
15 15 14 14 14 15 15 14 14 14 14 15 17 18 19 20 20 20 19 19 18 18 18 18 18 18 19 19 19 20 20 20 21 21 22 22 22 22 22 22 22 22 22 22 22 23 24 25 25 26 26 26 25 25 26 26 27 29 31 33 34 35 35

ECMWFFLT1_700_spd_066.txt.gz
Wind_Speed
47 46 46 44 43 41 41 41 41 41 42 43 43 43 42 41 39 38 36 35 34 33 33 32 31 31 30 29 28 28 28 27 26 25 25 25 25 25 25 26 26 25 25 26 28 32 38 45 50 54 56 58 58 58 59 59 60 61 63 64 66 67 67
46 46 45 44 43 41 41 41 41 41 42 42 43 43 43 43 42 41 39 37 36 35 35 34 33 32 32 30 29 29 29 28 26 25 25 25 25 25 25 25 26 25 24 24 26 29 33 39 46 51 54 58 59 59 59 59 60 60 60 62 64 65 66
45 45 45 44 43 41 41 41 41 41 41 41 42 43 44 44 44 43 42 40 38 37 37 36 34 34 34 32 31 30 30 29 27 26 26 25 25 25 24 25 25 25 24 23 24 26 29 34 40 46 52 56 58 60 60 60 60 61 60 61 62 63 64
44 45 45 44 43 41 40 40 40 41 41 41 42 43 44 44 45 45 44 43 41 40 39 38 36 35 35 34 32 31 30 30 29 28 27 26 25 26 25 24 25 25 25 24 23 24 26 30 35 40 47 53 57 59 61 61 60 61 61 61 61 62 62
42 44 44 44 43 42 40 40 40 41 41 41 41 42 43 44 45 45 45 45 43 42 41 40 38 37 37 35 33 32 31 31 30 29 28 26 26 26 25 24 24 24 25 24 23 23 24 26 30 34 41 48 54 58 60 62 62 62 61 61 62 62 62
41 43 43 44 43 42 40 39 40 40 40 40 41 42 42 43 44 45 46 46 45 44 43 41 40 39 38 37 34 32 32 32 31 30 28 27 26 26 25 24 24 24 24 24 23 23 24 25 27 30 34 41 49 55 59 61 62 62 62 61 62 62 62
40 42 42 42 42 42 40 39 39 39 39 40 40 41 41 42 43 44 45 46 46 45 44 43 41 40 39 38 35 33 33 33 32 31 29 27 26 27 26 24 24 24 24 23 22 22 23 24 25 27 30 34 41 50 56 59 61 62 62 61 61 61 62
39 40 41 41 41 41 40 39 38 37 38 39 39 40 40 41 41 43 44 45 45 45 45 44 42 41 40 38 35 34 34 34 33 31 29 27 26 27 26 25 24 23 23 23 22 21 22 22 22 23 25 28 33 42 50 55 59 60 61 61 61 61 61
38 39 40 39 40 40 39 38 37 36 36 38 38 39 39 40 40 42 43 43 44 44 44 43 43 42 41 39 36 35 36 35 33 31 29 26 27 28 27 25 24 23 22 22 21 20 20 20 20 20 22 24 28 33 41 49 55 58 58 59 60 61 60
36 38 38 38 38 39 38 37 35 34 35 37 38 38 39 39 40 40 41 41 42 42 43 43 42 42 41 39 37 37 37 35 33 31 29 26 27 28 27 26 24 22 21 21 20 20 19 17 18 18 18 20 23 26 33 41 49 54 56 57 58 59 59
35 37 37 37 38 38 37 36 33 33 35 36 37 38 38 38 39 39 39 39 39 40 41 42 42 41 41 39 38 38 36 35 33 31 28 26 26 27 27 26 24 21 20 19 19 19 18 17 17 16 16 16 18 22 27 33 41 49 53 55 55 56 57
34 36 36 37 37 37 36 34 32 33 35 36 36 37 37 37 37 38 38 38 37 38 39 40 41 41 40 39 38 38 37 35 33 30 28 27 26 26 26 25 23 21 19 18 18 17 17 17 17 16 15 15 16 18 21 27 34 41 47 51 52 53 54
33 35 35 36 36 36 35 33 31 33 35 34 35 36 37 36 36 36 37 37 36 36 37 38 39 39 39 38 38 38 36 33 31 30 29 27 27 26 26 24 22 20 18 17 15 15 16 17 17 16 16 15 14 14 16 21 26 33 40 45 48 50 50
33 34 34 34 35 36 34 32 31 33 34 34 34 36 36 36 35 34 35 35 35 35 35 36 37 38 37 38 39 38 35 31 30 30 29 28 27 25 24 23 21 19 18 16 13 13 15 16 17 17 17 15 14 13 13 16 20 26 32 38 42 45 47
34 33 32 33 34 35 33 31 31 32 32 33 34 35 36 36 34 33 34 34 34 34 34 34 36 36 37 38 38 37 33 30 30 29 28 28 26 23 22 22 22 20 18 16 12 12 14 15 16 17 17 17 15 14 13 14 16 20 24 30 36 40 43
34 32 31 32 33 34 32 30 30 31 31 32 33 34 35 35 33 32 32 32 32 32 33 34 34 35 36 37 37 35 31 30 30 28 27 26 25 23 21 21 20 21 21 18 14 13 14 15 15 16 17 17 17 16 16 16 16 17 19 23 27 32 36
33 31 30 31 32 32 31 29 29 31 31 31 32 33 34 33 32 31 31 30 31 31 31 33 33 34 35 36 35 33 30 29 29 27 26 24 23 22 21 20 20 22 22 20 17 16 16 16 16 16 17 17 17 17 18 18 17 17 19 20 22 25 28
32 29 29 30 30 31 30 28 28 30 31 30 31 32 32 31 30 30 30 30 30 29 30 31 32 33 34 34 34 32 29 27 27 26 26 24 23 23 21 19 19 21 22 21 20 19 19 19 18 17 17 17 17 17 18 18 18 19 21 21 22 23 25
30 27 27 28 29 30 29 27 27 30 30 29 30 31 30 29 29 29 28 29 29 28 29 30 32 33 33 33 33 30 27 25 26 27 27 25 24 24 21 17 18 21 22 22 21 21 22 22 21 20 19 18 18 17 17 16 17 20 22 22 23 24 25
29 26 26 26 28 29 28 26 27 29 29 28 29 29 29 28 27 27 27 28 28 28 29 30 31 32 32 32 31 28 25 25 27 28 28 26 25 23 19 16 18 21 22 22 23 23 23 23 23 23 22 20 18 18 17 16 16 18 20 22 24 25 27
26 24 24 25 26 27 27 26 26 28 28 28 27 28 27 26 26 26 27 28 28 27 28 29 29 30 31 32 30 26 25 27 29 29 28 27 25 22 17 17 20 21 22 23 23 23 23 23 24 24 23 21 19 18 17 16 16 17 19 21 23 25 27
25 23 23 24 25 26 26 25 25 26 27 27 26 26 26 25 24 25 26 27 27 27 27 28 29 30 31 31 29 26 27 28 28 28 28 27 25 21 18 18 20 21 22 24 24 23 23 23 24 24 24 21 19 18 17 17 17 18 20 22 23 24 26
24 22 22 23 24 25 24 24 25 25 26 26 25 25 24 23 23 24 26 26 26 27 27 28 29 29 30 30 29 28 29 29 29 29 28 27 25 23 20 19 20 20 21 23 23 23 24 24 24 25 25 22 19 18 17 17 18 19 20 21 22 23 23
23 21 21 22 23 24 23 23 24 24 25 24 24 23 23 23 23 24 25 26 26 27 27 27 27 27 28 29 29 29 30 31 31 31 30 28 27 26 23 22 22 21 20 21 22 22 23 24 24 25 25 24 21 20 19 20 20 20 20 20 20 20 21
22 20 20 21 22 23 23 22 23 23 23 23 23 22 22 22 23 24 25 26 27 27 27 26 25 26 27 28 29 29 30 31 32 32 31 30 29 28 27 26 25 24 22 22 22 22 22 23 24 25 25 25 24 24 23 22 21 20 20 20 20 21 22
21 19 19 21 22 22 22 21 21 22 22 22 21 21 22 23 24 25 27 28 28 27 25 24 24 25 27 28 29 30 31 31 32 32 32 31 30 30 29 28 27 26 25 24 24 23 22 22 24 26 26 26 27 26 25 24 23 22 22 21 21 22 22
20 19 19 20 21 21 21 20 20 20 20 21 20 21 22 24 25 26 26 27 26 24 21 21 23 26 28 29 30 31 31 31 31 31 32 31 30 28 27 27 28 27 27 27 26 26 24 23 24 26 27 27 26 26 26 25 24 24 24 23 22 22 22
19 18 19 20 20 20 19 19 19 19 19 19 20 21 22 24 24 24 24 25 24 23 21 22 25 28 29 30 31 31 30 30 30 31 31 30 28 26 25 26 27 27 28 28 28 27 26 24 25 26 26 27 27 27 27 26 25 25 25 23 23 22 21
18 18 19 20 19 18 18 18 18 18 18 19 20 21 23 24 24 25 25 25 25 24 24 25 27 28 29 29 30 30 29 29 30 31 31 29 26 25 25 25 26 26 27 27 27 28 27 27 27 26 26 27 28 27 27 27 26 26 26 25 23 22 20
18 18 19 18 18 18 18 18 18 18 18 19 20 22 24 24 25 25 24 24 25 25 25 25 26 28 29 29 29 28 28 27 29 30 29 27 26 25 25 25 25 25 25 25 26 26 27 28 28 28 27 27 27 27 28 28 27 27 27 26 24 21 19
18 18 18 18 18 18 17 17 17 17 18 19 21 23 24 24 24 24 24 25 25 26 25 24 25 27 28 28 28 28 27 26 26 27 28 27 27 26 26 26 25 25 25 25 25 26 26 28 29 29 28 27 27 27 28 29 29 29 28 27 24 21 19
18 18 18 18 17 17 16 16 16 17 19 20 22 23 23 24 24 24 24 24 24 24 23 23 24 26 27 28 28 27 27 27 27 27 27 28 28 27 27 27 26 26 26 26 26 26 26 27 28 29 29 28 27 27 27 28 30 30 29 27 25 21 19
18 18 18 17 16 15 15 15 17 18 20 20 21 22 23 22 22 21 20 20 21 22 22 23 25 26 27 28 28 28 29 29 29 28 28 29 29 28 28 28 28 27 27 27 27 27 27 27 27 28 29 29 28 27 27 28 29 30 29 28 26 22 19
17 17 17 15 15 15 15 17 18 19 19 19 19 20 19 18 18 18 18 19 20 21 22 23 24 25 27 28 29 30 30 30 30 30 30 30 29 29 28 28 28 28 28 27 27 27 27 27 27 28 28 29 29 28 27 28 29 30 30 29 27 23 19
17 16 15 15 15 16 17 18 18 18 18 17 17 17 17 18 18 18 18 18 19 20 21 22 23 24 25 27 28 29 30 31 31 31 30 30 29 29 28 28 28 27 28 28 27 27 27 27 27 28 28 28 28 28 28 28 29 30 31 30 28 24 21
17 16 16 15 16 16 17 17 17 17 16 15 15 17 19 19 18 17 16 17 18 18 19 21 22 23 24 26 27 28 29 30 30 30 29 29 28 28 28 28 27 27 27 27 27 27 27 27 27 27 27 28 28 28 28 28 28 29 30 30 28 26 23

ECMWFFLT1_700_spd_069.txt.gz
Wind_Speed
53 53 54 56 56 55 53 50 47 45 43 42 43 43 42 42 42 43 44 46 47 46 44 43 41 39 37 37 36 34 32 31 30 29 28 27 27 27 27 28 28 27 26 24 23 22 23 26 29 32 35 37 41 45 49 54 56 56 57 58 60 61 62
54 53 53 54 56 56 53 50 48 45 43 42 42 42 42 42 42 42 43 45 47 47 46 45 43 40 39 38 38 36 33 32 31 30 29 28 28 27 27 27 28 27 26 25 24 22 23 24 26 29 32 36 40 44 46 50 55 56 56 57 59 60 62
54 54 52 53 56 56 55 51 47 45 43 41 41 41 42 42 41 42 42 43 45 47 47 46 45 43 40 40 39 37 35 34 32 31 30 29 29 28 27 27 27 27 26 25 24 23 22 23 23 25 28 33 38 42 44 46 51 56 56 56 58 60 61
54 54 52 52 54 57 56 51 47 45 42 41 41 41 41 42 42 42 42 42 44 46 47 48 47 45 42 41 41 39 37 35 34 32 31 31 30 29 27 26 27 27 26 25 24 24 23 23 23 23 24 29 34 39 43 45 47 52 56 57 57 58 60
54 53 52 50 52 56 55 51 47 43 41 40 41 41 41 42 42 42 42 42 43 45 47 48 48 47 44 43 42 41 39 37 36 34 33 32 32 30 27 26 27 26 26 26 24 23 24 23 23 23 23 24 29 34 39 43 46 49 53 56 57 57 58
54 53 51 49 50 54 55 51 47 42 39 39 40 41 41 42 42 42 42 42 43 44 46 48 48 48 46 45 43 42 40 38 38 36 34 33 33 32 29 26 26 26 26 25 24 23 23 23 23 23 22 22 24 29 34 40 45 48 51 54 57 58 58
53 51 49 47 49 52 53 51 46 41 37 38 39 40 41 42 42 42 42 42 42 43 45 47 48 48 48 46 44 42 41 40 39 38 35 34 34 33 30 27 26 27 26 25 24 24 23 23 24 23 22 22 22 24 28 35 41 46 50 52 55 57 58
50 49 48 46 47 51 52 51 45 38 36 36 37 39 41 42 42 41 41 41 41 42 43 45 47 48 48 46 44 42 42 41 40 39 37 35 35 34 31 28 27 27 26 25 24 24 23 23 23 24 23 21 20 21 23 28 35 43 48 51 53 55 57
48 47 46 45 46 49 51 49 42 35 34 35 36 38 40 42 41 41 41 41 41 41 42 44 46 47 47 46 44 43 42 41 40 39 38 36 36 34 31 29 29 28 26 25 24 24 23 23 23 24 23 21 20 19 20 24 30 37 44 49 52 53 56
47 45 45 43 44 47 48 45 38 32 32 34 36 37 40 41 41 41 41 40 40 40 41 42 43 44 45 45 44 43 43 42 40 39 38 37 36 35 32 30 29 28 26 25 24 23 23 23 23 24 23 21 20 18 18 20 24 30 37 44 50 53 55
47 45 44 42 41 43 44 41 34 30 31 33 35 37 39 40 41 41 40 40 40 39 39 39 41 42 43 44 44 44 43 42 40 38 37 37 37 35 32 30 29 28 27 26 24 23 23 23 23 24 23 22 20 18 16 17 19 24 30 37 45 51 54
47 45 43 40 38 39 40 37 33 30 31 33 34 37 39 39 40 40 40 39 38 37 37 38 39 40 41 41 42 43 43 42 40 38 37 37 37 35 32 30 29 29 28 25 24 23 23 23 23 24 24 23 21 18 15 15 17 19 24 31 38 46 52
47 45 42 39 37 37 37 36 33 31 32 33 33 36 39 39 38 39 39 38 37 36 36 36 37 38 38 39 39 41 43 41 39 38 37 37 37 34 31 29 29 29 27 25 24 23 22 23 23 23 24 23 21 18 16 15 15 16 20 25 31 39 46
46 44 42 39 36 36 38 37 34 32 32 33 33 35 38 40 38 38 37 36 35 35 35 35 35 36 36 36 37 39 40 40 39 38 37 37 36 33 30 29 28 28 27 26 24 22 22 24 23 23 24 23 20 18 17 16 15 15 17 20 25 32 39
45 43 41 39 37 37 39 38 35 32 32 33 33 34 37 40 40 37 35 34 34 34 33 33 34 34 34 34 35 36 36 37 38 38 37 36 34 31 30 29 27 27 27 26 24 22 23 24 24 23 24 23 20 18 18 17 15 14 14 16 20 25 31
44 41 40 39 37 38 40 39 35 33 32 32 32 34 37 39 39 37 34 33 32 32 32 32 32 32 33 33 34 34 34 35 36 37 37 35 32 30 30 28 26 26 27 26 25 24 23 24 24 24 24 22 19 18 18 17 15 13 13 15 16 20 23
42 40 39 38 37 38 41 39 35 32 31 31 32 34 37 38 37 35 33 31 31 31 31 31 31 31 32 32 33 32 32 33 34 35 35 32 30 30 29 27 25 26 26 26 26 25 24 25 25 24 23 22 19 18 18 17 14 14 15 14 13 16 18
40 38 38 37 36 37 40 39 34 31 30 31 32 34 36 37 35 33 31 30 30 29 29 29 30 31 32 31 31 30 31 32 33 33 32 31 30 29 28 25 24 25 26 27 27 27 26 26 25 24 24 22 19 19 18 15 15 17 16 13 13 15 16
38 37 36 34 33 36 39 37 33 30 29 30 31 34 35 35 33 31 29 29 29 29 28 28 29 31 32 30 29 30 30 30 31 32 30 29 30 29 26 24 24 25 26 26 26 27 27 26 25 25 24 22 20 20 18 15 16 18 16 14 15 16 15
36 35 33 31 31 34 36 35 32 29 29 30 31 33 34 33 31 29 28 28 28 28 27 27 28 30 31 29 29 29 29 29 29 29 28 29 30 27 24 24 24 24 24 25 26 26 27 28 27 26 26 24 22 21 18 15 15 16 15 15 17 17 17
34 32 30 29 30 32 33 33 31 28 28 30 31 31 32 31 29 27 27 27 27 26 26 25 26 29 29 29 28 28 28 27 27 26 26 28 28 25 22 23 23 23 23 25 26 26 27 28 29 28 27 25 23 21 18 16 15 15 14 14 16 17 18
31 29 28 28 29 31 32 31 29 27 28 29 30 30 30 29 27 26 26 26 25 25 24 24 26 28 28 28 28 27 26 26 25 25 25 25 25 24 23 23 22 22 24 25 25 25 25 26 27 27 27 26 24 21 19 18 17 16 15 15 15 16 17
29 27 26 26 28 30 30 30 27 26 27 28 29 29 28 27 25 25 25 25 24 23 23 24 26 27 27 27 26 25 25 25 26 26 25 24 24 23 23 23 23 23 24 24 25 25 24 24 25 26 27 26 25 23 21 21 19 18 17 17 17 17 15
26 25 24 25 27 29 29 28 26 26 26 27 27 27 26 25 24 24 24 23 23 23 23 24 24 25 24 24 24 24 24 25 27 28 28 28 27 26 24 24 24 24 22 22 23 25 24 23 23 24 25 25 25 24 23 23 22 21 21 20 19 18 15
24 24 24 25 27 28 28 27 26 25 25 25 26 25 24 23 24 24 23 22 22 22 23 23 23 23 23 23 24 25 27 28 29 31 32 33 32 31 29 27 26 26 24 22 22 24 23 21 21 22 22 23 24 25 25 25 25 24 24 22 20 18 16
22 22 23 24 26 27 27 26 24 23 23 24 24 23 22 22 23 23 23 22 22 22 22 23 24 24 24 25 27 30 32 33 34 34 35 36 36 35 33 30 28 28 27 26 25 23 21 19 19 20 21 23 25 26 26 26 26 25 24 22 20 19 17
20 21 23 24 25 25 25 24 22 22 22 22 22 21 21 22 22 22 22 22 22 23 24 25 25 25 25 26 29 31 34 36 36 35 36 37 38 37 35 33 31 30 30 28 27 25 21 19 18 20 22 24 25 26 26 26 26 26 24 22 21 20 18
20 22 24 25 25 24 24 22 21 20 20 21 21 20 20 21 21 22 22 22 23 25 26 26 26 27 27 27 29 32 35 36 37 37 38 39 39 38 36 35 33 32 31 29 28 26 23 21 20 20 21 24 25 25 26 27 26 26 25 24 23 22 19
22 23 24 23 23 22 21 20 19 19 20 20 20 20 20 20 20 21 22 23 24 25 26 26 27 27 28 27 29 33 36 37 38 38 38 39 39 37 36 36 35 33 31 30 29 27 25 23 23 22 22 23 23 24 25 27 27 26 26 26 24 23 20
21 22 21 20 20 20 19 19 18 19 19 19 19 19 19 19 20 21 22 23 24 24 24 24 24 23 23 24 27 32 35 37 38 38 37 37 37 36 36 36 35 33 31 30 29 27 26 25 25 24 24 24 23 23 23 25 26 27 27 27 25 24 23
19 20 19 19 19 19 18 18 18 18 18 18 18 18 19 20 21 21 22 23 23 23 23 23 23 23 23 24 26 30 33 35 36 36 36 35 35 34 35 35 33 30 28 27 27 26 26 26 25 25 25 25 25 24 24 24 25 26 27 27 26 25 24
19 19 19 18 18 17 17 17 16 17 16 16 17 18 19 20 21 21 22 23 23 23 23 24 24 24 25 26 28 29 31 33 34 34 34 34 33 33 33 32 29 26 25 25 26 26 25 24 24 24 24 25 26 26 26 25 25 25 25 26 27 26 25
19 19 18 18 17 17 16 15 15 16 16 16 17 18 19 20 20 21 21 22 24 25 25 26 26 26 26 26 27 28 30 31 32 32 32 32 32 32 31 29 27 26 26 26 25 25 25 24 24 24 24 25 26 26 26 27 27 26 25 25 27 27 27
18 18 17 17 17 15 14 14 15 16 16 17 17 17 18 20 21 22 22 24 25 26 26 26 26 25 24 23 24 26 28 29 29 29 30 30 31 31 30 28 27 27 26 26 26 26 26 25 25 24 25 25 26 26 26 27 28 27 26 26 26 27 28
17 17 15 14 14 13 14 15 15 15 16 18 18 19 19 20 21 21 22 23 25 25 25 24 23 22 22 23 25 26 27 27 28 28 28 29 29 29 29 28 28 27 27 27 27 27 27 26 25 26 26 26 26 26 26 27 27 27 27 27 26 26 27
16 15 13 11 11 12 13 15 15 16 18 19 19 19 19 19 19 20 21 22 23 23 23 23 22 22 23 24 25 25 26 26 27 28 28 28 28 28 28 28 28 28 27 28 28 28 27 27 27 27 27 27 27 27 27 27 27 27 27 27 27 27 27

ECMWFFLT1_700_spd_075.txt.gz
Wind_Speed
59 57 55 54 55 57 59 61 61 60 59 58 53 51 53 52 51 51 50 48 47 46 46 47 45 44 45 47 49 50 48 47 48 49 49 48 47 47 46 44 43 43 39 34 34 36 34 33 33 33 33 33 33 32 32 31 30 30 30 30 32 34 35
57 55 53 55 57 59 61 63 64 63 63 62 57 52 53 53 50 50 49 48 47 45 44 45 45 45 45 46 49 49 48 47 47 49 50 49 48 47 46 45 43 43 41 36 34 35 34 33 32 32 32 33 32 31 31 31 30 29 29 30 31 32 33
56 55 55 58 60 62 63 64 65 65 64 64 59 52 52 53 50 49 48 47 47 45 44 45 45 45 46 46 48 49 47 46 47 49 50 50 49 48 47 45 44 44 42 38 35 35 34 33 32 31 31 32 31 30 30 30 30 29 29 29 30 31 32
56 56 57 59 61 63 65 65 67 67 65 65 60 52 51 53 50 48 48 46 46 45 44 44 45 45 46 47 48 48 48 46 47 48 50 51 51 49 47 45 44 44 42 39 37 36 34 33 32 31 31 31 31 29 29 29 29 29 29 29 29 29 30
57 57 58 59 61 64 66 67 67 67 66 65 60 52 50 53 51 48 47 46 45 46 45 45 45 45 46 47 48 48 48 46 46 48 49 50 52 50 48 46 45 44 43 41 39 37 35 34 32 30 30 31 30 28 27 28 29 29 28 28 28 28 29
57 57 57 59 61 64 66 67 68 68 67 65 61 54 50 52 52 49 46 46 46 46 46 46 46 45 46 47 48 48 48 45 44 47 48 49 51 51 48 46 45 44 43 43 40 38 36 35 32 30 30 30 29 27 26 27 28 28 28 28 28 27 28
57 57 57 58 60 62 64 66 67 68 67 65 61 56 51 52 52 49 46 45 45 46 47 46 45 45 45 45 47 47 46 44 43 46 47 48 49 50 49 47 46 45 44 43 41 39 37 35 32 30 30 29 28 26 25 27 27 27 28 28 27 27 27
57 56 57 58 59 60 62 64 66 66 67 65 61 56 51 50 51 49 46 45 45 46 46 45 44 44 43 44 46 47 45 42 42 44 46 46 48 49 50 49 47 46 45 44 42 39 37 36 33 31 30 29 28 26 25 26 26 26 27 28 27 27 26
57 56 55 56 58 59 60 61 62 63 64 64 60 54 50 48 49 48 45 44 45 46 45 45 43 42 42 44 46 45 43 41 41 43 45 45 46 48 49 49 48 47 46 44 43 40 38 37 34 31 30 30 28 26 25 25 25 25 26 27 26 26 26
58 56 55 54 55 57 58 59 59 59 60 60 56 51 49 47 46 46 45 45 45 45 45 43 42 41 41 43 44 43 41 40 39 41 43 43 44 46 47 49 49 48 47 45 43 40 38 38 35 31 31 30 28 27 25 24 24 25 26 25 25 25 25
58 57 55 54 53 54 55 55 55 55 55 54 51 48 47 47 45 45 44 44 44 44 43 42 41 40 40 42 43 41 40 38 38 39 42 42 42 44 46 48 49 49 47 45 43 41 39 38 35 31 31 30 29 28 25 24 24 25 25 25 24 24 24
58 57 56 54 52 52 52 51 51 50 50 49 46 44 44 45 45 45 43 42 42 42 41 40 39 38 40 42 42 40 38 37 37 39 41 41 41 42 45 47 49 48 46 45 43 41 40 38 33 31 31 30 30 29 26 24 24 24 24 24 23 23 23
58 56 55 53 52 50 49 48 47 46 46 44 41 41 40 41 44 45 43 41 40 39 38 38 36 37 39 41 40 39 37 37 37 38 40 41 41 41 43 45 47 47 46 44 43 41 39 36 33 31 31 31 31 30 27 25 24 24 24 23 23 23 23
57 55 53 51 49 47 46 45 43 42 41 38 37 38 38 39 43 44 43 41 39 37 37 35 35 37 39 40 39 37 36 36 38 38 39 40 41 41 42 44 45 46 45 44 43 41 37 34 32 31 31 32 32 30 28 26 25 23 23 22 22 23 23
56 54 51 48 46 44 43 42 40 38 36 35 35 36 36 37 40 42 43 42 39 37 36 35 35 37 39 39 38 36 35 36 37 37 38 39 39 40 41 42 43 42 42 42 42 39 35 33 32 31 31 32 32 30 29 28 25 23 23 22 23 23 23
56 52 49 45 43 41 40 38 37 35 33 33 33 32 33 35 38 41 43 42 39 37 36 36 37 37 37 37 35 33 33 34 35 36 36 38 39 39 40 40 39 38 39 40 39 37 35 33 32 31 31 32 31 30 30 29 25 23 23 22 22 23 22
54 50 46 42 40 38 37 35 33 31 30 30 30 30 31 34 36 40 42 41 40 39 37 37 37 36 35 34 33 31 31 32 34 35 36 37 38 37 37 37 35 35 37 39 38 36 35 33 32 31 31 32 31 31 31 29 25 23 23 22 22 22 22
51 46 42 39 37 35 35 32 29 27 27 27 27 26 28 32 35 38 40 40 40 40 38 36 36 34 33 33 31 29 29 31 33 35 36 36 35 35 35 34 32 34 36 38 37 37 36 34 32 32 33 33 32 32 31 28 25 24 24 22 20 21 21
46 43 39 36 34 33 32 29 26 24 24 24 24 25 27 31 34 36 38 39 41 41 37 34 32 30 31 31 29 28 29 30 32 34 34 33 34 34 32 29 29 32 34 36 38 37 36 34 33 34 34 33 32 32 31 28 25 25 23 20 19 19 20
41 39 36 33 31 30 28 26 24 22 22 23 24 25 27 30 33 35 38 40 41 41 35 30 29 29 29 29 28 28 29 30 32 32 31 31 33 31 27 25 28 31 33 36 37 36 35 34 34 34 34 33 32 32 30 28 26 25 22 19 18 19 20
37 35 33 31 29 27 25 23 22 21 21 23 24 25 26 30 33 35 37 39 40 39 33 29 28 28 27 26 26 27 28 29 30 29 29 31 30 26 24 27 30 31 33 36 36 36 35 35 34 34 33 32 31 30 28 27 24 22 19 18 18 20 20
34 32 30 27 25 24 22 20 20 21 21 23 24 25 27 30 33 35 37 38 38 35 30 28 27 26 25 25 25 26 28 29 28 27 28 28 25 24 27 29 30 31 33 34 35 36 36 35 34 33 32 31 30 28 27 26 21 18 17 18 19 20 20
31 29 27 25 21 19 19 18 19 20 21 22 24 25 28 31 33 33 35 37 35 31 27 26 26 25 24 24 25 26 28 29 28 26 26 24 24 26 28 28 29 31 32 33 34 35 35 34 33 31 30 29 28 26 26 24 19 16 18 19 19 20 20
28 27 25 21 18 16 16 16 17 18 20 21 22 24 28 33 34 33 33 33 32 28 25 24 23 23 23 24 25 26 27 29 28 27 25 24 25 26 27 27 29 30 30 32 34 34 33 32 30 28 26 25 25 25 25 23 19 19 20 21 20 20 21
25 22 20 18 15 13 13 14 14 15 17 19 21 23 26 30 33 31 29 28 27 25 24 23 22 22 22 23 24 26 28 29 28 27 26 26 25 25 26 27 28 29 30 32 32 31 30 28 26 24 23 22 23 24 24 22 20 21 22 22 22 21 21
20 17 16 15 15 13 12 11 11 12 14 16 18 20 22 25 26 26 25 25 24 22 22 22 22 22 22 22 24 26 28 28 26 25 27 28 27 26 26 27 28 29 29 29 28 27 26 24 22 22 22 23 24 24 24 23 22 23 24 23 22 21 20
16 15 16 16 14 12 10 9 8 8 11 13 15 16 18 20 21 22 22 21 19 18 19 20 20 20 21 23 25 27 28 27 26 26 26 28 30 30 28 27 27 27 27 26 26 26 24 23 22 23 23 24 24 23 23 22 22 22 23 23 22 22 20
16 18 21 20 17 14 10 8 6 6 7 10 12 13 15 16 17 18 19 18 16 16 17 17 18 20 22 24 26 27 26 26 28 28 27 29 32 33 30 28 27 27 27 27 26 25 24 23 23 23 23 23 23 23 22 21 21 21 22 23 23 22 20
19 23 25 24 20 15 11 7 5 4 6 8 10 11 12 13 13 15 17 16 17 17 15 16 18 20 22 25 27 27 27 27 28 29 30 33 34 33 30 28 27 27 28 27 26 25 24 23 23 23 24 23 23 23 21 20 20 21 22 23 23 22 20
14 18 20 20 17 13 10 7 4 4 4 5 7 8 9 10 12 14 15 16 17 17 15 15 18 20 22 25 26 27 28 28 28 30 33 35 35 31 29 28 27 27 26 26 25 24 23 23 23 23 23 23 22 21 20 20 20 21 21 22 22 21 20
5 7 10 13 14 11 8 6 3 3 2 2 4 6 8 10 11 12 14 15 16 16 16 17 20 21 23 25 26 27 28 29 29 32 34 35 34 31 29 28 26 26 25 25 25 23 22 22 22 22 21 20 19 19 19 18 18 18 19 20 21 21 21
1 2 4 7 10 10 7 6 4 1 1 3 2 4 7 9 9 11 13 14 14 15 16 19 21 22 24 26 27 28 29 28 29 32 34 35 33 30 29 27 26 26 26 27 27 25 24 23 22 21 19 18 18 17 16 15 15 16 16 17 19 20 21
2 3 4 6 10 11 9 8 6 4 4 5 6 6 7 8 8 8 9 10 12 14 16 19 21 22 25 28 29 29 30 29 29 31 33 33 31 29 27 28 28 29 29 30 29 28 26 25 24 23 21 19 19 18 17 16 16 15 16 16 17 18 20
5 5 6 9 14 15 12 11 10 9 7 6 7 10 11 12 12 11 10 10 11 14 17 19 21 24 27 28 29 29 31 31 32 34 34 32 31 30 29 30 31 32 32 33 32 30 28 27 27 26 24 22 20 19 18 18 18 18 18 19 18 18 18
7 6 8 12 14 15 15 14 12 10 9 7 7 9 11 12 12 12 11 12 13 15 17 19 22 26 28 28 28 29 30 31 33 34 34 33 33 33 33 33 33 34 34 35 34 33 31 30 29 29 27 25 22 21 20 20 20 20 21 21 21 20 19
8 4 8 12 12 11 13 13 10 8 8 8 8 7 8 11 11 10 9 10 11 13 15 19 23 27 28 28 28 28 29 29 31 32 33 34 35 35 35 35 35 35 36 36 35 34 32 31 30 30 29 27 25 23 22 22 22 22 23 23 22 21 21

ECMWFFLT1_700_spd_078.txt.gz
Wind_Speed
62 62 63 63 63 63 63 63 64 64 64 65 66 66 66 65 64 64 64 64 64 62 62 60 55 54 56 54 53 53 52 53 53 51 51 50 51 52 53 54 55 57 57 55 53 49 44 43 42 42 42 41 40 40 40 40 39 38 38 37 37 37 36
62 62 63 63 63 63 62 62 62 63 63 64 66 66 66 66 66 66 65 66 66 64 63 62 56 53 54 52 52 52 51 52 52 51 51 51 51 52 53 53 54 55 56 56 54 51 46 43 42 43 42 40 40 40 40 39 38 36 36 36 37 37 36
63 62 62 62 62 62 61 61 61 61 62 63 65 66 67 67 67 68 67 67 67 65 65 63 56 51 52 51 50 51 51 50 50 50 51 51 51 52 53 53 53 54 55 57 55 51 47 44 43 43 42 41 40 40 39 39 37 35 35 35 36 37 36
63 62 62 62 61 61 61 61 61 61 61 61 63 64 66 67 67 68 68 68 68 66 65 64 56 49 50 50 50 50 50 50 49 50 51 51 51 52 52 52 52 53 54 56 56 52 48 46 44 43 42 41 39 39 39 38 36 34 34 34 35 36 35
63 63 63 62 62 62 62 62 62 62 62 61 62 63 64 66 67 67 68 68 68 67 66 64 58 49 47 50 51 50 50 50 49 49 50 51 51 51 52 52 52 53 53 55 56 53 49 46 45 44 42 41 40 39 38 38 35 33 33 34 34 34 34
64 64 64 64 63 63 63 63 62 63 62 62 62 62 63 65 66 67 68 69 69 68 66 64 59 51 48 50 53 51 51 51 50 49 50 50 50 50 51 52 52 52 53 54 55 54 50 47 46 44 43 41 40 39 38 37 34 33 33 33 32 33 33
65 65 65 65 65 64 64 63 63 63 62 61 61 61 62 63 65 67 68 69 69 68 67 63 59 54 49 50 53 52 51 52 51 50 49 49 49 49 50 52 52 51 52 53 55 54 51 48 46 45 43 40 40 40 38 35 34 33 32 31 32 32 32
66 66 66 65 65 65 64 63 63 62 61 61 60 60 61 62 63 65 66 68 68 67 65 62 58 54 50 50 53 53 51 52 50 49 49 48 48 49 50 51 51 50 51 53 54 54 51 48 46 46 44 41 41 40 36 35 35 33 30 30 31 32 31
66 66 66 65 65 64 64 63 62 61 60 59 59 58 59 60 61 62 64 65 65 64 62 61 58 54 51 52 53 51 51 51 49 48 48 47 47 48 49 50 50 49 50 52 54 54 52 49 47 46 44 42 40 38 35 35 36 32 29 30 30 30 31
65 65 65 65 65 64 63 62 61 59 58 57 57 57 58 58 58 59 61 61 62 62 60 58 56 53 51 51 50 49 49 49 47 46 46 46 46 48 49 49 49 49 49 51 53 54 52 50 47 46 44 41 38 36 35 36 36 32 29 30 29 29 30
65 65 65 65 65 64 63 61 59 57 56 55 55 55 56 56 56 56 57 57 58 59 57 55 53 50 48 47 47 48 48 47 45 44 43 44 45 46 48 48 48 48 48 50 53 53 52 51 48 44 43 40 37 35 35 36 35 32 30 29 29 28 28
64 64 64 64 63 62 61 60 58 56 54 53 53 52 52 53 53 53 53 53 53 54 54 53 50 47 45 45 45 46 46 44 43 42 42 42 43 44 46 46 46 46 47 49 51 51 51 51 47 43 42 40 36 35 36 36 35 32 30 29 28 27 27
64 63 62 62 62 61 60 58 56 54 53 51 50 49 48 48 48 48 48 48 48 50 51 50 47 44 43 43 42 43 43 42 41 41 41 41 42 43 44 44 43 44 46 47 49 50 50 49 45 42 41 39 36 36 37 37 35 32 30 29 28 27 27
63 62 61 61 61 60 58 56 54 52 50 48 46 43 41 41 40 41 43 44 44 46 48 47 45 43 41 40 40 40 40 39 39 39 40 42 43 44 44 43 41 42 43 44 46 48 48 46 43 41 40 38 37 38 39 36 34 33 31 29 27 27 27
64 63 62 61 60 59 56 53 50 49 46 43 41 37 35 36 37 39 42 43 42 44 46 46 44 41 39 39 38 37 36 35 36 37 40 42 44 44 44 43 43 43 43 44 46 47 46 43 42 40 39 39 39 39 38 35 35 34 31 28 27 28 27
64 64 62 60 57 55 52 49 46 44 41 37 35 33 32 33 36 40 43 44 44 45 46 45 43 41 39 38 37 35 32 32 34 36 39 42 43 43 43 43 43 43 43 44 45 45 43 40 40 40 40 40 39 38 36 36 36 34 30 28 28 28 27
63 62 61 58 53 49 47 44 41 38 35 32 31 30 29 30 33 36 39 40 42 44 45 44 41 39 38 36 34 32 29 30 33 36 39 40 41 41 42 43 43 42 42 42 41 40 39 38 39 39 39 40 39 37 37 37 36 32 29 28 28 28 26
62 59 56 53 48 44 42 40 37 34 30 28 26 25 26 27 29 31 34 37 40 42 42 41 39 37 37 35 32 29 27 28 32 35 37 38 38 39 40 41 40 40 40 40 39 38 37 37 38 39 39 39 38 36 37 38 34 32 30 29 28 27 26
59 56 51 47 42 38 37 36 34 31 28 26 23 21 21 23 25 28 32 35 37 37 37 37 36 35 34 33 30 28 27 29 31 34 36 36 36 37 37 36 35 36 36 37 37 37 36 37 39 40 40 40 38 37 37 36 34 33 32 28 27 26 26
55 51 46 41 36 33 32 31 31 29 26 24 21 19 19 21 25 28 31 33 33 33 33 34 33 32 32 30 28 27 28 29 30 33 35 34 34 34 32 31 32 33 33 34 34 35 36 38 40 41 42 40 38 37 37 35 34 34 31 27 27 26 25
49 45 40 34 30 28 27 27 27 27 26 23 20 19 19 22 26 28 30 31 31 30 31 32 32 31 30 28 26 26 28 28 30 32 33 32 30 28 27 28 30 31 31 33 35 36 37 39 40 42 43 41 39 38 36 35 34 33 29 27 26 25 24
42 37 31 25 22 21 22 23 24 26 25 22 20 20 20 22 25 26 27 29 30 29 30 30 30 28 26 25 24 25 27 28 28 30 31 29 25 23 25 28 29 30 32 34 35 37 39 40 41 43 43 40 39 37 35 34 33 31 28 25 24 23 23
33 27 23 20 18 18 19 21 22 24 24 21 19 20 21 23 24 24 24 26 28 27 27 28 27 25 24 23 23 24 25 26 27 28 29 26 22 22 25 29 30 31 33 34 35 36 38 40 41 42 40 38 36 34 33 33 32 29 26 23 22 22 23
26 21 21 20 20 19 19 20 21 21 20 20 18 18 21 23 25 25 25 26 27 26 26 25 24 23 22 22 23 24 24 25 26 27 26 23 22 24 27 29 31 32 33 33 34 35 36 38 40 40 37 35 34 33 32 32 31 27 23 22 22 23 24
22 19 21 22 22 22 22 21 20 18 16 16 16 16 19 22 25 28 30 30 28 25 22 22 22 21 21 22 23 24 25 27 29 29 26 24 25 26 27 29 31 32 31 32 33 32 33 35 36 35 33 32 32 33 33 32 30 25 22 22 23 23 24
20 19 23 24 24 26 28 26 22 17 13 11 11 12 14 16 20 25 28 28 26 21 16 17 19 19 20 21 23 24 26 29 30 30 28 28 29 29 28 28 30 31 30 30 30 29 29 31 32 31 32 33 34 34 33 31 28 24 23 24 24 23 24
21 23 28 28 28 31 32 29 25 19 13 9 7 6 6 9 12 18 22 23 21 17 12 12 15 18 19 21 23 25 27 28 28 29 29 30 32 32 31 29 28 28 27 26 26 26 26 28 30 31 33 34 33 31 29 27 25 23 24 25 25 25 24
25 29 32 30 30 34 34 29 24 19 13 9 6 3 2 4 7 11 15 18 16 14 12 11 13 17 19 22 23 25 26 26 27 28 29 30 31 32 32 29 27 25 24 24 24 25 26 28 29 31 31 31 29 28 26 26 24 24 26 28 27 25 23
25 28 30 26 26 31 33 29 26 20 14 9 6 3 1 3 5 7 11 13 13 13 13 11 10 13 17 20 22 23 24 25 26 27 28 29 29 30 30 29 27 25 25 25 25 26 27 27 27 27 27 27 26 26 25 25 24 25 27 28 26 25 23
17 19 22 21 22 24 24 24 25 20 14 9 6 5 3 3 5 6 8 11 11 12 12 11 11 13 16 19 20 20 21 22 23 24 25 27 28 28 28 29 28 26 25 25 25 25 25 25 24 24 24 24 24 24 24 23 23 24 24 25 25 24 23
13 12 14 16 17 17 17 18 21 18 12 8 7 6 4 1 3 3 5 8 9 9 10 12 14 16 17 18 18 18 18 19 21 23 23 26 28 28 28 28 29 28 27 26 26 25 24 23 23 22 22 22 22 22 22 21 20 21 21 22 22 22 21
11 10 10 11 11 13 15 17 19 17 11 7 9 9 6 3 2 1 2 5 7 8 8 11 14 17 17 17 15 15 17 18 20 22 24 27 28 29 29 30 30 29 29 27 26 25 24 24 23 22 22 22 22 21 19 18 18 19 20 20 20 20 20
9 7 7 7 7 8 10 13 16 16 12 8 8 9 7 5 5 4 1 3 6 8 8 10 13 16 15 14 14 16 18 20 21 23 25 27 29 29 31 30 29 28 28 27 25 25 25 24 24 23 22 21 21 20 19 18 18 19 20 19 19 18 19
7 4 1 3 5 7 9 11 13 14 12 9 8 7 6 5 8 7 4 2 5 8 9 11 13 14 14 15 17 18 20 20 20 21 24 27 29 30 29 28 27 26 25 24 23 23 23 23 23 23 22 21 20 19 19 18 18 18 18 18 18 18 19
5 3 3 2 3 6 7 9 12 14 13 10 8 7 6 6 8 8 8 6 6 8 9 10 12 15 17 19 20 19 19 18 16 16 21 27 29 28 27 26 25 24 23 22 22 21 21 21 20 20 21 21 20 20 20 18 17 16 15 15 16 17 18
8 4 5 3 1 4 5 5 8 12 13 11 9 7 6 6 8 9 9 8 10 11 11 11 14 18 19 20 20 19 19 18 17 17 21 25 26 25 24 24 24 23 22 22 22 22 21 20 19 18 19 20 20 21 21 19 17 16 16 15 15 16 17

ECMWFFLT1_700_spd_081.txt.gz
Wind_Speed
58 59 60 61 62 63 64 64 65 65 65 65 64 64 64 65 65 66 67 67 68 67 67 67 67 66 65 63 63 62 61 61 59 61 62 58 55 56 58 58 60 64 65 62 59 59 59 59 58 56 56 57 58 57 58 59 58 57 55 54 53 52 51
61 62 63 63 64 65 65 66 66 66 66 66 66 65 65 65 65 66 66 66 67 67 67 67 67 67 65 63 63 63 63 63 61 62 64 60 54 55 56 56 57 60 62 62 58 57 59 60 60 58 56 56 57 56 56 57 58 58 55 53 52 51 50
63 64 65 66 66 66 66 67 66 67 67 67 67 66 66 65 65 65 66 66 66 66 66 68 68 68 67 65 64 64 63 64 63 63 65 61 54 53 54 54 55 57 60 60 58 56 58 61 61 60 57 55 56 54 55 57 58 58 55 52 51 50 49
65 66 66 67 67 67 67 67 67 67 67 67 67 67 67 66 65 65 66 66 66 66 66 68 68 69 68 67 66 65 63 64 64 63 65 61 53 51 53 52 53 55 57 58 57 56 58 61 61 61 57 55 55 54 55 57 57 57 55 51 50 49 48
66 67 67 67 68 68 68 68 68 68 68 67 67 67 67 67 66 66 66 66 66 66 67 67 68 69 69 68 68 66 64 64 64 63 64 61 53 50 52 52 52 53 54 56 56 55 58 60 61 61 58 55 54 54 54 56 57 56 55 52 49 48 47
66 67 67 67 68 68 68 68 68 68 68 68 67 67 67 67 67 66 66 66 66 66 66 67 67 68 68 69 69 67 65 64 64 65 64 61 54 50 50 51 52 52 53 54 55 55 57 60 61 61 59 55 53 52 53 54 56 56 55 52 49 47 46
66 66 66 67 67 67 67 68 68 68 68 67 67 67 67 67 67 67 66 66 66 66 66 65 66 67 67 68 69 68 66 65 65 66 65 61 56 52 51 51 52 53 53 53 54 55 56 59 60 61 59 56 53 52 52 53 55 56 54 51 49 47 44
65 65 65 65 66 66 66 67 67 67 67 67 66 66 66 66 65 66 66 65 65 64 64 64 64 65 66 67 67 67 67 66 65 66 65 60 57 55 53 52 53 54 53 53 54 55 55 57 59 60 60 57 53 52 51 51 53 54 51 49 49 47 43
64 65 64 64 64 64 64 64 65 65 65 65 65 65 65 65 65 64 64 64 64 62 62 62 62 62 63 64 65 65 66 66 65 65 63 59 57 55 53 53 54 54 53 53 53 54 54 56 58 59 60 58 54 51 49 48 50 52 50 48 48 46 42
62 63 63 63 63 62 62 62 62 62 62 63 64 64 65 65 64 63 63 63 62 61 60 59 59 59 60 61 62 63 64 64 62 61 60 57 55 54 53 54 55 54 53 52 52 53 54 55 57 58 59 57 53 49 47 47 50 51 48 47 48 45 42
61 61 61 61 62 61 61 61 61 62 62 62 62 62 63 64 63 63 62 62 61 60 58 57 56 56 56 58 59 60 61 61 58 56 55 52 51 51 51 53 54 53 52 51 51 52 53 53 56 57 58 56 52 48 46 47 49 49 47 47 48 44 41
60 60 60 60 60 60 61 61 62 62 62 61 60 59 59 60 60 60 59 58 57 55 54 54 54 53 53 53 55 55 57 58 57 54 52 50 48 47 45 46 49 50 50 49 50 51 52 53 54 56 56 53 50 47 45 46 48 47 46 47 47 43 40
59 59 58 59 60 61 61 62 62 62 61 59 58 56 54 53 52 52 51 51 50 49 49 49 49 49 48 49 49 48 48 51 52 51 49 48 47 45 42 41 42 43 45 47 48 49 50 52 52 54 54 50 48 46 44 45 47 46 46 47 45 41 39
58 58 58 59 60 62 62 61 61 60 58 55 54 51 48 45 44 43 43 44 44 43 43 43 42 43 44 44 44 44 44 45 45 44 44 44 43 43 43 42 41 40 40 42 45 46 48 49 50 51 49 46 45 44 43 45 46 45 45 46 42 39 39
57 58 58 59 60 61 60 59 58 56 53 50 47 44 41 38 37 38 38 39 39 39 40 41 40 40 41 40 41 41 41 41 40 38 39 40 40 40 42 44 44 43 42 41 41 43 44 46 47 47 46 44 44 43 42 44 45 45 46 45 41 38 37
57 58 58 58 58 58 58 55 51 48 46 43 39 37 35 33 33 34 35 35 36 37 39 40 40 40 40 38 38 38 36 35 35 35 36 37 37 37 40 43 45 45 44 41 40 40 42 43 44 44 44 43 42 42 42 44 45 47 47 44 39 37 35
57 57 57 56 55 54 53 50 44 40 39 37 33 32 31 30 30 31 31 31 32 33 35 36 38 40 40 39 38 36 31 30 32 33 34 34 35 36 38 41 44 45 43 41 39 37 36 38 40 41 41 41 40 40 42 45 47 48 46 41 37 34 34
56 55 53 52 51 48 45 42 37 33 34 35 33 31 30 29 29 29 28 28 28 28 29 31 33 36 38 39 38 35 29 28 29 32 32 32 32 34 37 40 44 45 45 44 42 37 34 34 35 35 37 38 38 40 43 46 47 45 42 38 34 33 35
54 53 50 48 46 41 36 34 32 30 32 35 35 33 31 30 30 29 26 26 26 26 27 29 30 31 33 34 34 32 29 26 27 30 32 31 31 33 36 39 42 45 45 46 44 41 38 37 35 34 35 36 38 40 44 45 44 43 40 37 34 35 36
51 49 47 44 40 34 29 28 29 29 32 34 34 33 30 30 31 29 27 25 25 25 26 27 28 28 27 27 27 27 25 24 25 29 30 30 30 31 32 34 38 40 41 41 41 40 40 40 38 35 35 36 39 42 44 44 43 42 39 37 36 37 35
47 46 44 40 34 28 25 25 26 29 33 34 33 31 29 29 29 27 26 25 25 25 25 25 25 24 22 22 23 23 22 22 25 28 29 28 27 26 26 28 31 34 36 37 38 40 40 40 39 36 35 37 40 43 44 44 42 41 38 37 37 35 32
44 42 41 37 30 25 23 23 24 28 33 33 31 30 27 27 25 23 23 24 23 23 24 23 21 19 18 17 19 20 20 20 23 26 27 26 24 23 24 26 29 31 34 37 38 39 39 39 39 38 37 39 41 43 43 42 40 39 38 37 35 33 30
40 39 38 35 28 21 19 20 24 29 31 31 29 28 26 25 23 20 20 22 23 23 22 21 18 16 15 15 16 18 19 20 22 25 26 24 23 22 23 25 27 30 33 35 36 37 38 38 39 39 39 40 41 42 43 41 39 37 36 35 34 31 30
38 38 37 31 22 16 16 21 28 32 31 29 27 26 24 23 21 19 19 23 24 23 21 18 16 14 14 14 15 18 19 20 21 23 24 23 22 22 22 24 27 29 31 32 33 35 37 37 38 39 39 39 40 40 39 39 37 35 35 34 32 30 28
36 37 33 24 19 20 24 28 32 34 32 29 26 24 22 20 19 18 19 21 21 20 18 15 13 12 13 13 16 19 20 21 22 23 23 22 21 20 21 24 25 27 29 31 31 32 34 35 36 37 37 36 36 34 34 35 36 35 34 33 31 28 27
35 35 28 20 21 26 30 32 34 34 32 30 27 24 20 18 16 16 16 16 16 17 16 13 10 11 13 15 18 22 24 24 25 25 24 22 21 21 22 24 25 25 26 28 29 30 31 32 33 35 35 35 33 31 32 35 36 36 35 34 31 28 26
33 32 25 21 24 29 31 32 33 32 32 32 29 24 21 19 16 14 12 10 13 15 14 10 8 10 13 15 16 20 24 26 26 27 26 25 25 24 23 24 24 23 23 25 26 27 27 28 29 32 34 35 34 33 33 35 36 36 35 32 28 26 26
32 30 26 24 27 31 32 31 31 31 32 33 29 23 19 19 18 16 11 6 7 10 10 8 6 8 12 15 16 18 21 23 24 25 26 27 28 28 27 25 25 23 22 23 24 24 24 26 28 31 33 34 33 33 34 35 37 36 33 28 25 25 26
30 28 27 25 27 30 32 32 31 29 27 26 25 23 19 16 16 15 13 8 3 3 5 5 4 5 7 10 13 16 18 19 21 23 25 26 27 29 29 27 25 24 23 23 23 23 23 25 27 28 30 31 31 33 34 36 36 33 29 26 26 26 26
25 24 24 23 22 24 26 27 28 25 19 17 20 21 19 16 15 15 14 10 6 3 1 3 3 3 3 5 9 13 16 18 19 21 22 23 25 27 28 27 25 23 22 22 22 23 23 24 25 26 28 29 31 33 34 34 32 29 26 26 27 27 27
24 22 21 20 19 20 19 19 21 20 17 15 15 16 16 16 15 14 14 12 8 4 1 2 4 4 4 6 8 11 13 15 16 18 19 20 21 24 26 26 23 22 22 22 23 23 23 23 23 24 25 27 30 31 31 31 29 27 26 27 29 29 29
24 22 18 16 17 18 17 17 18 18 16 15 14 14 14 13 11 9 10 10 6 3 1 1 3 4 6 8 9 9 11 13 14 16 18 19 19 21 24 24 23 22 23 24 24 23 22 21 22 23 24 26 27 28 29 28 28 27 28 29 30 30 28
21 22 19 15 15 16 14 14 16 17 17 16 14 13 12 11 9 8 9 9 5 0 3 4 3 4 7 7 7 6 8 10 11 13 15 17 19 22 23 23 23 24 25 25 24 22 21 22 23 24 24 25 26 26 27 26 27 27 29 30 29 27 26
14 18 19 16 14 14 13 12 13 15 17 17 15 12 11 10 10 10 10 8 5 3 4 4 4 3 4 4 4 5 6 7 8 10 12 15 19 22 23 23 24 26 26 25 25 25 24 24 25 25 24 24 24 25 25 25 26 27 27 28 26 24 24
15 16 17 15 15 14 13 11 12 12 13 15 15 12 8 7 7 9 11 11 10 8 6 6 6 6 8 9 10 9 8 6 5 7 10 14 18 21 22 23 24 26 27 26 27 27 27 26 26 25 25 24 23 23 23 24 24 25 24 24 23 23 23
18 16 16 15 14 15 13 12 13 12 10 12 13 11 8 5 6 10 13 13 14 14 13 12 12 13 13 12 12 11 11 10 8 8 9 12 16 19 21 23 24 25 26 26 27 27 27 26 25 24 24 24 22 21 21 21 21 21 20 19 20 21 22